[[[{"header":{"parameterUnit":"kt","parameterCategory":2,"dx":1,"dy":1,"la1":30.253999710083008,"la2":30.299108505249023,"lo1":-89.0895004272461,"lo2":-89.04439544677734,"nx":28,"ny":28,"refTime":"2022-10-29T21:00:00:Z","depth":0,"parameterNumber":1,"parameterNumberName":"U-component_of_WINDS"},"data":[0.5808,0.5819,0.584,0.5863,0.5885,0.5905,0.5919,0.5939,0.596,0.5987,0.6006,0.6029,0.606,0.6089,0.6111,0.6122,0.613,0.6118,0.6133,0.6165,0.6171,0.6176,0.6175,0.612,0.6119,0.6097,0.6097,0.6097,0.583,0.5852,0.5869,0.5901,0.5917,0.5941,0.5968,0.598,0.5997,0.6024,0.6044,0.6069,0.6092,0.6128,0.6155,0.6162,0.6176,0.6168,0.6168,0.6173,0.6208,0.6206,0.6156,0.6156,0.6156,0.6156,0.6156,0.6156,0.5874,0.588,0.5911,0.5931,0.5953,0.5974,0.5984,0.6012,0.603,0.6059,0.6082,0.6102,0.6134,0.6176,0.6196,0.6214,0.6227,0.6226,0.6226,0.6225,0.6222,0.6253,0.6219,0.6219,0.622,0.622,0.622,0,0.5914,0.5931,0.595,0.5975,0.5991,0.6012,0.6036,0.6042,0.6088,0.6101,0.6123,0.6139,0.6171,0.6195,0.6225,0.6247,0.6275,0.628,0.628,0.627,0.6257,0.6266,0.6322,0.6282,0.6282,0.6283,0.6283,0.6283,0.5962,0.5966,0.6009,0.602,0.6038,0.6054,0.6068,0.6108,0.6121,0.6157,0.6161,0.6184,0.6206,0.6238,0.6272,0.6297,0.6312,0.6294,0.6316,0.6306,0.6314,0.6314,0.6315,0.629,0.6289,0.6288,0.6288,0,0.5988,0.6023,0.6036,0.6079,0.609,0.6092,0.613,0.6137,0.6164,0.6179,0.6185,0.6228,0.6249,0.6287,0.6319,0.6338,0.6344,0.6357,0.6334,0.6339,0.6328,0.6329,0.6283,0.628,0.6337,0.6336,0.6336,0,0.6044,0.6047,0.6099,0.6105,0.611,0.6151,0.6155,0.6179,0.6207,0.6219,0.6256,0.6267,0.6314,0.633,0.6359,0.637,0.6376,0.6392,0.64,0.639,0.6388,0.64,0.6403,0.6416,0.6416,0.6416,0.6417,0,0.6081,0.6113,0.6122,0.6135,0.6182,0.6186,0.6206,0.6237,0.6251,0.6275,0.6285,0.631,0.6325,0.6344,0.6381,0.6394,0.6395,0.6422,0.6413,0.6412,0.6412,0.6412,0.636,0.6417,0.6417,0.6417,0.6417,0,0.6133,0.6155,0.6162,0.6203,0.621,0.6216,0.6243,0.6257,0.6288,0.6306,0.6326,0.6356,0.6368,0.6392,0.641,0.6418,0.643,0.6447,0.6447,0.6452,0.6478,0.6446,0.6391,0.6387,0.6454,0.6455,0.6455,0,0.6167,0.6183,0.6218,0.6225,0.6238,0.628,0.6287,0.6313,0.6339,0.6354,0.6383,0.64,0.6426,0.6437,0.6441,0.6472,0.6462,0.6474,0.6499,0.6499,0.6491,0.644,0.6423,0.6398,0.6459,0.6459,0.6458,0,0.6198,0.6255,0.6254,0.6271,0.6312,0.6323,0.6331,0.6357,0.6366,0.6391,0.64,0.6426,0.6447,0.6465,0.6492,0.6494,0.647,0.6517,0.6518,0.6508,0.6464,0.6448,0.6444,0.6488,0.6487,0.6487,0.6462,0,0.6271,0.6283,0.6281,0.6317,0.6331,0.6337,0.6378,0.6388,0.6413,0.644,0.6453,0.6485,0.6513,0.6518,0.6543,0.6534,0.6542,0.6565,0.6592,0.6558,0.6551,0.6548,0.6599,0.66,0.6601,0.6602,0,0,0.6296,0.6315,0.6354,0.6363,0.6378,0.6422,0.6425,0.6445,0.6484,0.6493,0.6509,0.6549,0.6575,0.6588,0.658,0.6591,0.6594,0.6604,0.6573,0.657,0.6567,0.6559,0.6555,0.6604,0.6604,0.6604,0.6604,0,0.6331,0.6354,0.6356,0.6378,0.6412,0.6441,0.6441,0.6483,0.65,0.6513,0.6551,0.6564,0.6595,0.6618,0.6634,0.6603,0.6632,0.6608,0.6578,0.6581,0.6576,0.6572,0.6563,0.6559,0.6607,0.6606,0.6606,0,0.6371,0.6401,0.6406,0.6441,0.6464,0.6477,0.6515,0.6526,0.6537,0.6586,0.6598,0.6622,0.6656,0.6662,0.6666,0.6681,0.6664,0.6676,0.6672,0.6674,0.6679,0.6673,0.6668,0.6733,0.6734,0.6734,0,0,0.6396,0.6408,0.6454,0.6452,0.6464,0.6506,0.6517,0.6543,0.6572,0.6584,0.6615,0.6643,0.6662,0.6673,0.6693,0.6693,0.6705,0.669,0.6684,0.6679,0.6678,0.6682,0.6676,0.6735,0.6735,0.6735,0,0,0.6409,0.6462,0.6482,0.6484,0.651,0.6556,0.6554,0.658,0.6602,0.6606,0.6652,0.6662,0.6668,0.669,0.6699,0.6704,0.6731,0.6729,0.669,0.6683,0.6677,0.6673,0.6744,0,0,0,0,0,0.6466,0.6455,0.6473,0.6479,0.6524,0.6546,0.6552,0.659,0.6607,0.6605,0.6635,0.6665,0.6704,0.6713,0.672,0.671,0.6748,0.6746,0.6744,0.6693,0.6685,0.6679,0,0,0,0,0,0,0.6469,0.6477,0.6473,0.6518,0.6528,0.6547,0.6585,0.6595,0.6609,0.6614,0.6658,0.6666,0.6699,0.6713,0.6718,0.6708,0.6743,0.6747,0.6745,0.6744,0.6691,0.6684,0.6679,0,0,0,0,0,0.6472,0.6478,0.6541,0.6518,0.6527,0.6575,0.6586,0.6595,0.6606,0.6653,0.6662,0.6633,0.6698,0.6705,0.6716,0.6705,0.6739,0.6741,0.6746,0.6744,0.6743,0.6687,0,0,0,0,0,0,0.6473,0.6486,0.6543,0.6548,0.6525,0.6574,0.6583,0.6594,0.6645,0.6654,0.6631,0.6634,0.6697,0.6703,0.6708,0.6701,0.6737,0.6739,0.674,0.6745,0.6744,0.6743,0,0,0,0,0,0,0.6483,0.649,0.6545,0.6552,0.6558,0.6574,0.6582,0.6597,0.6645,0.662,0.6624,0.6632,0.669,0.6701,0.6705,0.6727,0.6735,0.6736,0.6738,0.6738,0.6744,0.6743,0,0,0,0,0,0,0.6487,0.6492,0.6552,0.6556,0.656,0.6611,0.6588,0.6633,0.665,0.6617,0.6652,0.6654,0.6687,0.6692,0.6703,0.6722,0.6726,0.6735,0.6736,0.6737,0.6737,0,0,0,0,0,0,0,0.6489,0.6443,0.6518,0.6558,0.6563,0.6587,0.6588,0.6589,0.665,0.6651,0.6652,0.6653,0.6725,0.6727,0.6729,0.6719,0,0,0.6735,0.6735,0,0,0,0,0,0,0,0,0.6442,0.6443,0.6518,0.6519,0.652,0.6587,0.6588,0.6589,0.665,0.6651,0.6652,0.6653,0.6725,0.6727,0.6728,0,0,0,0,0,0,0,0,0,0,0,0,0,0,0,0.6518,0.6519,0,0.6587,0.6588,0.6589,0.665,0.6651,0.6652,0.6652,0.6726,0.6727,0.6728,0,0,0,0,0,0,0,0,0,0,0,0,0,0,0,0,0,0,0,0,0,0,0,0,0,0,0,0,0,0,0,0,0,0,0,0,0,0,0,0,0,0,0,0,0,0,0,0,0,0,0,0,0,0,0,0,0,0,0,0,0,0,0,0,0,0,0,0,0]}],[{"header":{"parameterUnit":"kt","parameterCategory":2,"dx":1,"dy":1,"la1":30.253999710083008,"la2":30.299108505249023,"lo1":-89.0895004272461,"lo2":-89.04439544677734,"nx":28,"ny":28,"refTime":"2022-10-29T21:00:00:Z","depth":0,"parameterNumber":2,"parameterNumberName":"V-component_of_WINDS"},"data":[3.0558,3.0513,3.0534,3.0491,3.0503,3.0477,3.0474,3.0472,3.0476,3.0446,3.0432,3.0447,3.0457,3.0445,3.0429,3.0436,3.0427,3.0396,3.0409,3.0532,3.055,3.0568,3.058,3.0395,3.0394,3.0278,3.0277,3.0276,3.0645,3.0656,3.064,3.0639,3.0625,3.0668,3.0669,3.0654,3.0629,3.0634,3.0622,3.0597,3.0579,3.0601,3.0586,3.0564,3.0582,3.0558,3.0559,3.0559,3.0692,3.0705,3.0544,3.0544,3.0544,3.0544,3.0544,3.0544,3.0808,3.0781,3.0792,3.0776,3.0781,3.0779,3.0756,3.0776,3.076,3.075,3.0778,3.0749,3.0757,3.075,3.0752,3.073,3.0759,3.0739,3.0734,3.0727,3.0717,3.0878,3.0729,3.0729,3.073,3.073,3.073,0,3.0934,3.0953,3.094,3.0932,3.0921,3.0917,3.0917,3.0903,3.0951,3.0936,3.0915,3.0906,3.0888,3.0869,3.0861,3.0868,3.0908,3.0915,3.0901,3.0885,3.0873,3.0876,3.109,3.0919,3.092,3.0922,3.0923,3.0923,3.1097,3.1064,3.1087,3.1074,3.108,3.1059,3.1051,3.1097,3.1085,3.1091,3.1064,3.1047,3.1035,3.0997,3.1019,3.1005,3.1024,3.0956,3.1022,3.1009,3.102,3.102,3.1016,3.0941,3.0939,3.0937,3.0936,0,3.1187,3.1222,3.1177,3.1204,3.1209,3.1171,3.1193,3.1167,3.119,3.1157,3.1152,3.1187,3.1165,3.1199,3.1181,3.1199,3.1132,3.1153,3.1129,3.1134,3.1075,3.1079,3.0882,3.0858,3.1053,3.1051,3.105,0,3.1339,3.1293,3.1349,3.132,3.1271,3.1318,3.1267,3.1282,3.1291,3.1265,3.1319,3.1293,3.1342,3.1321,3.1348,3.13,3.1297,3.1307,3.1314,3.1301,3.1299,3.1293,3.13,3.1335,3.1336,3.1337,3.1338,0,3.1473,3.1451,3.1406,3.1406,3.143,3.1407,3.1415,3.1426,3.1417,3.1412,3.1406,3.1396,3.139,3.138,3.1415,3.1458,3.1358,3.1424,3.1368,3.1366,3.1342,3.1342,3.1162,3.1339,3.1339,3.134,3.134,0,3.1601,3.1597,3.1527,3.1548,3.154,3.151,3.1504,3.1487,3.1494,3.151,3.1506,3.1545,3.1509,3.1572,3.1521,3.1567,3.1557,3.1564,3.156,3.1557,3.1625,3.1516,3.1343,3.1325,3.1556,3.1558,3.156,0,3.1743,3.1684,3.1725,3.1657,3.1634,3.1696,3.1664,3.167,3.1689,3.1671,3.1691,3.167,3.1725,3.1722,3.1693,3.1712,3.1652,3.1722,3.169,3.1688,3.1684,3.1526,3.1491,3.1378,3.1583,3.1581,3.1579,0,3.1858,3.189,3.1875,3.1877,3.1894,3.1875,3.1838,3.1829,3.1815,3.1816,3.1785,3.1758,3.1797,3.1793,3.1824,3.1791,3.1694,3.1837,3.1838,3.1808,3.1599,3.1565,3.1546,3.1722,3.1719,3.1717,3.1598,0,3.2038,3.2014,3.1977,3.1981,3.1973,3.1934,3.1973,3.1959,3.199,3.2011,3.1967,3.1981,3.1969,3.1959,3.1989,3.1904,3.1923,3.1965,3.2027,3.1924,3.1885,3.187,3.2081,3.2083,3.2085,3.2086,0,0,3.2164,3.213,3.2177,3.2145,3.214,3.2206,3.216,3.2164,3.2168,3.2163,3.2198,3.2161,3.217,3.2112,3.2083,3.2079,3.2067,3.2101,3.1973,3.1961,3.1949,3.1907,3.189,3.2089,3.209,3.2091,3.2091,0,3.2237,3.225,3.2205,3.2211,3.2222,3.2248,3.2237,3.2258,3.227,3.2229,3.2281,3.226,3.2229,3.2231,3.2228,3.211,3.2149,3.2104,3.2027,3.199,3.1975,3.1961,3.1917,3.1901,3.2095,3.2095,3.2095,0,3.2355,3.2373,3.2356,3.2352,3.236,3.2335,3.241,3.2382,3.2363,3.2435,3.2392,3.2405,3.2411,3.2353,3.2328,3.2359,3.2222,3.2274,3.2264,3.2261,3.2226,3.2208,3.2192,3.2404,3.2405,3.2405,0,0,3.2413,3.2392,3.2425,3.2371,3.2372,3.2409,3.2401,3.2431,3.2437,3.2439,3.2457,3.2459,3.2442,3.2429,3.2415,3.2346,3.2349,3.231,3.2295,3.2283,3.2274,3.2236,3.2218,3.2409,3.2409,3.2409,0,0,3.244,3.2477,3.2508,3.2451,3.2456,3.2483,3.2448,3.2486,3.2478,3.2487,3.2535,3.2538,3.2485,3.2495,3.2537,3.2437,3.2498,3.2488,3.2432,3.2414,3.24,3.2398,3.2614,0,0,0,0,0,3.2536,3.2473,3.2501,3.2497,3.2492,3.2468,3.2468,3.2508,3.255,3.2521,3.2541,3.2585,3.2527,3.2566,3.256,3.2512,3.2454,3.2446,3.2438,3.235,3.233,3.2314,0,0,0,0,0,0,3.2535,3.2531,3.2503,3.2527,3.2526,3.2471,3.2551,3.256,3.2554,3.2563,3.258,3.2585,3.2618,3.2571,3.2566,3.2519,3.2616,3.245,3.2444,3.2438,3.2343,3.2327,3.2314,0,0,0,0,0,3.2535,3.2531,3.2513,3.2528,3.2527,3.2565,3.2553,3.2562,3.2558,3.2589,3.2596,3.2588,3.2615,3.2614,3.2568,3.252,3.262,3.2618,3.2446,3.2441,3.2436,3.2335,0,0,0,0,0,0,3.2534,3.2538,3.2513,3.2515,3.2555,3.2569,3.2573,3.2563,3.2585,3.2591,3.26,3.2607,3.2613,3.2612,3.261,3.2519,3.2623,3.2621,3.262,3.2442,3.2438,3.2434,0,0,0,0,0,0,3.254,3.2538,3.2514,3.2546,3.2552,3.2572,3.2576,3.2543,3.2584,3.2595,3.2602,3.2603,3.2615,3.2611,3.2609,3.2557,3.2626,3.2624,3.2622,3.2621,3.2439,3.2435,0,0,0,0,0,0,3.254,3.2539,3.2546,3.255,3.2555,3.2572,3.2544,3.2536,3.2614,3.2593,3.2622,3.2626,3.2612,3.2612,3.2609,3.2556,3.2556,3.2626,3.2624,3.2623,3.2622,0,0,0,0,0,0,0,3.254,3.254,3.2506,3.2554,3.2558,3.2526,3.2526,3.2526,3.2615,3.2618,3.2621,3.2624,3.2638,3.2635,3.2633,3.2555,0,0,3.2626,3.2625,0,0,0,0,0,0,0,0,3.2542,3.2541,3.2506,3.2507,3.2507,3.2526,3.2526,3.2526,3.2615,3.2618,3.262,3.2623,3.2637,3.2635,3.2633,0,0,0,0,0,0,0,0,0,0,0,0,0,0,0,3.2506,3.2507,0,3.2526,3.2526,3.2526,3.2616,3.2618,3.262,3.2622,3.2637,3.2635,3.2633,0,0,0,0,0,0,0,0,0,0,0,0,0,0,0,0,0,0,0,0,0,0,0,0,0,0,0,0,0,0,0,0,0,0,0,0,0,0,0,0,0,0,0,0,0,0,0,0,0,0,0,0,0,0,0,0,0,0,0,0,0,0,0,0,0,0,0,0,0]}]]]